Lid_Strength_Index
14 13 13 14 14 13 15 14 16 15 15 14 12 11 11 11 10 10 10 10 10 10 10 10 10 10 10 10 11 11 12 12 11 11 11 11 12 12 12 12 11 11 12 12
15 13 13 15 13 14 14 15 14 14 14 10 10 11 11 11 11 11 11 11 11 10 10 10 10 11 11 11 12 13 13 13 13 14 14 14 14 13 13 13 13 13 13 13
17 14 14 16 15 14 14 13 13 15 12 12 12 12 11 12 12 12 12 11 11 11 11 11 11 11 11 11 12 14 14 14 14 14 14 14 14 14 13 13 13 13 13 13
17 15 20 16 14 12 12 12 11 12 12 11 11 11 11 12 12 12 12 11 11 11 11 11 11 12 12 13 14 13 13 15 15 15 15 15 14 15 14 14 15 15 15 15
17 17 17 16 15 14 14 14 11 11 14 13 13 13 13 11 11 12 12 11 11 12 12 12 12 12 14 13 14 14 14 13 14 15 15 15 16 15 15 16 17 17 16 17
19 19 23 18 15 14 14 18 14 13 13 13 13 16 15 11 13 12 12 12 12 12 12 13 12 13 14 14 15 14 13 13 14 15 15 14 14 15 16 18 16 16 14 13
19 20 19 16 15 14 20 19 15 12 12 13 14 13 12 12 12 12 12 12 13 13 13 12 12 14 14 14 14 13 15 15 16 16 16 16 16 18 18 18 17 17 15 14
15 17 19 15 13 14 13 12 12 12 12 12 12 12 12 12 12 12 12 12 12 13 12 12 13 15 14 14 13 15 15 16 16 15 17 16 21 20 21 20 19 16 14 14
14 14 12 12 12 10 10 11 11 11 11 11 11 12 12 12 11 11 11 11 11 13 13 12 15 16 15 13 15 15 16 16 14 13 17 19 21 20 21 22 20 17 15 15
16 16 13 11 9 9 9 10 10 10 11 10 11 11 12 11 11 11 12 13 14 15 14 14 14 15 16 15 16 18 18 17 14 14 17 20 18 18 16 16 14 14 14 14
18 16 14 13 12 10 11 11 11 11 11 12 12 12 12 12 12 12 13 14 15 15 15 15 15 15 16 16 13 15 17 17 15 16 18 18 16 16 16 16 13 13 13 13
17 13 12 12 10 10 11 11 10 11 11 12 12 12 12 12 13 13 14 15 15 16 16 15 17 16 16 20 17 14 14 14 13 13 16 16 13 13 10 10 10 10 10 12
12 11 11 11 11 11 11 11 12 12 12 12 12 12 14 14 15 15 15 17 17 16 16 16 17 18 17 22 22 17 14 12 12 13 15 16 14 13 12 10 8 8 9 9
12 12 13 12 12 12 12 13 15 16 15 14 15 17 17 17 17 17 17 17 16 17 18 20 19 19 20 24 25 21 18 15 12 13 16 15 13 13 13 13 14 15 11 11
12 12 12 14 14 14 16 17 19 18 17 18 19 20 21 21 21 20 19 18 18 18 20 21 21 19 24 26 24 22 18 15 12 13 12 12 12 13 14 14 16 17 16 15
15 18 18 17 16 17 19 21 21 19 19 20 21 21 21 22 23 22 22 21 21 19 18 26 22 20 27 27 24 21 18 15 12 11 11 11 13 14 15 16 17 18 18 18
19 20 24 22 20 21 23 22 22 21 22 23 23 24 24 25 25 24 23 23 20 19 19 23 22 26 25 24 23 19 17 14 11 11 11 12 13 14 16 16 18 18 18 17
22 23 23 24 23 25 26 27 27 27 27 26 25 26 27 27 26 25 24 23 21 21 23 24 27 25 24 23 21 18 16 14 13 12 13 13 14 15 16 17 18 18 19 17
27 26 27 25 27 29 31 31 31 30 29 28 29 28 28 27 27 26 24 24 23 23 23 29 22 21 24 22 18 17 16 15 15 14 15 15 16 16 17 18 19 20 21 22
32 31 31 32 33 33 33 33 34 35 32 33 33 31 30 28 27 26 26 26 25 26 25 26 24 23 22 20 17 17 16 15 16 16 16 17 18 19 19 19 21 22 23 23
33 34 34 35 35 36 36 36 36 35 33 35 34 31 29 28 27 28 28 27 27 26 24 22 22 22 21 20 18 18 17 17 17 18 18 19 20 20 21 21 22 22 24 25
37 36 36 36 37 36 36 37 38 37 35 34 33 32 31 30 30 29 27 26 25 22 22 22 21 20 20 19 19 19 19 20 20 20 20 21 21 21 22 22 23 23 24 26
38 38 36 37 37 36 38 38 37 37 36 36 34 32 30 28 28 28 28 25 23 22 22 22 20 19 19 20 21 21 21 21 22 21 22 22 22 22 22 23 24 24 25 25
40 40 39 40 41 38 35 36 38 36 36 34 33 30 29 28 29 27 25 24 25 25 23 22 21 21 22 23 23 23 23 23 23 23 23 23 23 23 24 24 24 25 25 26
40 40 41 39 37 36 38 36 36 35 34 31 29 28 27 26 29 30 28 27 25 26 26 25 23 24 25 25 25 25 25 25 25 24 24 24 24 25 25 25 26 27 27 27
40 38 38 39 37 37 37 35 34 34 32 30 28 27 27 26 27 28 28 26 27 27 27 27 26 27 27 27 27 26 26 26 25 25 25 26 26 26 27 27 27 28 29 31
40 36 38 37 37 36 36 34 34 33 30 29 28 27 27 27 27 27 27 27 27 27 27 27 27 27 27 27 27 27 27 27 27 27 27 27 28 28 28 29 30 33 35 35